Flag for Greenland Weather past 2 weeks in Danmarkshavn, Greenland

Now
22 °F

Low clouds.


Feels Like: 12 °F
Forecast: N/A
Wind: 8 mph from Southwest

Location: Danmarkshavn

Current Time: Oct 22, 2014 at 9:54:11 PM

Latest Report: Oct 22, 2014 at 8:00 PM


Visibility: N/A

Pressure: 29.23 "Hg

Humidity: 95%

Dew point: 21 °F

Location of DanmarkshavnLocation

Historic Weather in Danmarkshavn — Graph

°F

Danmarkshavn temperature yesterday

Maximum temperature yesterday: 13 °F (at 11:00 PM)
Minimum temperature yesterday: 9 °F (at 3:00 AM)
Average temperature yesterday: 11 °F

Past Weeks' High & Low Weather Summary

 TemperatureHumidityPressure
High22 °F (Oct 22, 3:00 PM)96% (Oct 7, 8:00 PM)30.56 "Hg (Oct 7, 8:00 PM)
Low-7 °F (Oct 18, 9:00 AM)58% (Oct 20, 1:00 AM)29.23 "Hg (Oct 22, 8:00 PM)
Average7 °F80%30.07 "Hg
* Reported Oct 7 8:00 PM — Oct 22 8:00 PM, Danmarkshavn, Weather by CustomWeather, © 2014

Note: Actual official high and low records may vary slightly from our data, if they occured in-between our weather recording intervals... More about our weather records

Advertising

Danmarkshavn weather history for previous 24 hours

 ConditionsComfort  
Time TempWeatherWind HumidityBarometerVisibility
8:00 PM
Oct 22
22 °FLow clouds.8 mph95%29.23 "HgN/A
7:00 PM22 °FSnow. Passing clouds.17 mph94%29.26 "Hg0 mi
6:00 PM22 °FLight snow. Overcast.17 mph94%29.29 "Hg1 mi
5:00 PM21 °FLight snow. Overcast.22 mph94%29.29 "Hg1 mi
4:00 PM21 °FLight snow. Low clouds.15 mph92%29.32 "Hg1 mi
3:00 PM22 °FSnow. Partly sunny.25 mph90%29.35 "Hg0 mi
2:00 PM21 °FSnow. Low clouds.21 mph91%29.38 "Hg0 mi
1:00 PM20 °FSnow. Overcast.25 mph93%29.41 "Hg0 mi
12:00 PM20 °FSnow. Ice fog.24 mph93%29.44 "Hg1 mi
11:00 AM20 °FSnow. Cloudy.33 mph90%29.44 "Hg0 mi
10:00 AM19 °FSnow. Overcast.37 mph90%29.44 "Hg0 mi
9:00 AM19 °FSnow. Overcast.41 mph88%29.47 "Hg0 mi
8:00 AM18 °FSnow. Overcast.44 mph89%29.47 "Hg0 mi
7:00 AM19 °FSnow. Overcast.46 mph90%29.47 "Hg0 mi
6:00 AM19 °FSnow. Overcast.48 mph93%29.50 "Hg0 mi
5:00 AM19 °FSnow. Overcast.45 mph91%29.55 "Hg0 mi
4:00 AM18 °FSnow. Overcast.45 mph92%29.59 "Hg0 mi
3:00 AM18 °FSnow. Overcast.47 mph92%29.62 "Hg0 mi
2:00 AM19 °FSnow. Overcast.39 mph93%29.67 "Hg0 mi
1:00 AM16 °FSnow. Low clouds.14 mph91%29.72 "Hg0 mi
12:00 AM13 °FSnow. Ice fog.23 mph90%29.78 "Hg0 mi
11:00 PM
Oct 21
13 °FLight snow. Low clouds.25 mph86%29.83 "Hg1 mi
10:00 PM13 °FLight snow. Low clouds.26 mph85%29.84 "Hg1 mi
9:00 PM12 °FLight snow. Overcast.24 mph83%29.87 "Hg1 mi
Weather by CustomWeather, © 2014

See weather overviewHow to use our weather pages